Home   Weather   Umm al-Quwain   Past weeks

Flag for United Arab Emirates Past Weather in Umm al-Quwain, Umm al-Quwain, United Arab Emirates — Yesterday and Last 2 Weeks

Now
75 °F

Passing clouds.


Feels Like: 78 °F
Forecast: 70 / 74 °F
Wind: 10 mph from West

Location: Sharjah International Airport

Current Time: Dec 9, 2016 at 9:45:14 pm

Latest Report: Dec 9, 2016 at 9:00 pm


Visibility: N/A

Pressure: 29.98 "Hg

Humidity: 57%

Dew Point: 59 °F

Location of Umm al-QuwainLocation

Past Weather in Umm al-Quwain — Graph

°F

Umm al-Quwain Temperature Yesterday

Maximum temperature yesterday: 82 °F (at 1:00 pm)
Minimum temperature yesterday: 66 °F (at 5:00 am)
Average temperature yesterday: 75 °F

High & Low Weather Summary for the Past Weeks

 TemperatureHumidityPressure
High90 °F (Dec 5, 1:00 pm)100% (Dec 3, 3:00 am)30.15 "Hg (Dec 3, 3:00 am)
Low61 °F (Nov 27, 7:00 am)29% (Nov 27, 1:00 pm)29.95 "Hg (Nov 25, 3:00 pm)
Average74 °F68%30.04 "Hg
* Reported Nov 24 8:00 pm — Dec 9 8:00 pm, Umm al-Quwain, Weather by CustomWeather, © 2016

Note: Actual official high and low records may vary slightly from our data, if they occured in-between our weather recording intervals... More about our weather records

Advertising

Umm al-Quwain Weather History for the Previous 24 Hours

Scroll right to see more
 ConditionsComfort  
Time TempWeatherWind HumidityBarometerVisibility
8:00 pm
Fri, Dec 9
75 °FPassing clouds.12 mph61%29.98 "HgN/A
7:00 pm77 °FPassing clouds.12 mph57%29.98 "HgN/A
6:00 pm77 °FPassing clouds.18 mph65%29.95 "HgN/A
5:00 pm79 °FScattered clouds.18 mph58%29.95 "HgN/A
4:00 pm79 °FPassing clouds.20 mph61%29.95 "HgN/A
3:00 pm81 °FPassing clouds.21 mph58%29.95 "HgN/A
2:00 pm81 °FPassing clouds.20 mph58%29.95 "HgN/A
1:00 pm81 °FSunny.18 mph54%29.95 "Hg10 mi
12:00 pm81 °FSunny.18 mph54%29.98 "Hg10 mi
11:00 am81 °FPassing clouds.10 mph54%30.01 "HgN/A
10:00 am75 °FPassing clouds.10 mph69%30.04 "HgN/A
9:00 am73 °FPassing clouds.9 mph74%30.04 "HgN/A
8:00 am70 °FPassing clouds.10 mph83%30.01 "Hg5 mi
7:00 am68 °FPassing clouds.9 mph88%30.01 "Hg4 mi
6:00 am70 °FPassing clouds.8 mph83%30.01 "Hg4 mi
5:00 am70 °FPassing clouds.9 mph83%29.98 "Hg4 mi
4:00 am70 °FPassing clouds.7 mph88%29.98 "Hg5 mi
3:00 am70 °FPassing clouds.6 mph88%29.98 "Hg5 mi
2:00 am72 °FPassing clouds.7 mph83%30.01 "Hg5 mi
1:00 am73 °FClear.7 mph78%30.01 "Hg10 mi
12:00 am75 °FClear.7 mph78%30.01 "Hg10 mi
11:00 pm
Thu, Dec 8
75 °FPassing clouds.3 mph78%30.04 "HgN/A
10:00 pm77 °FPassing clouds.6 mph74%30.04 "HgN/A
9:00 pm77 °FPassing clouds.7 mph74%30.04 "HgN/A
Weather by CustomWeather, © 2016

See weather overviewHow to use our weather pages